Date String (YYYY-MM-DD hh:mm:ss) UTC,Instrument flags,Ambient pressure (hPa),Sample flow (lpm),Bypass flow (lpm),Sample temperature (°C),Ambient temperature (°C),ASC tube jacket temperature (°C),LED temperature (°C),Box temperature (°C),Sample RH (%),Span deviation,Mass concentration (μg/m³),Mass concentration (μg/m³),Mass concentration (μg/m³)
DateTimeUTC,F1_M11,P_M11,Q1_M11,Q2_M11,T1_M11,T2_M11,T3_M11,T4_M11,T5_M11,U1_M11,ZSPAN_M11,X2_M11,X0_M11,X1_M11
2021-11-21 08:00:00,,0833.2,4.99,0.00,24.4,23.5,00.0,33.4,26.2,17.5,0000.0,0005.98,0014.09,0004.70
2021-11-21 08:01:00,,0833.1,5.01,0.00,24.4,23.5,00.0,33.4,26.2,17.5,0000.0,0005.91,0013.96,0004.70
2021-11-21 08:02:00,,0833.1,5.00,0.00,24.4,23.5,00.0,33.4,26.2,17.4,0000.0,0005.90,0013.61,0004.70
2021-11-21 08:03:00,,0833.1,4.99,0.00,24.4,23.5,00.0,33.4,26.2,17.4,0000.0,0005.88,0013.59,0004.70
2021-11-21 08:04:00,,0833.1,5.01,0.00,24.4,23.5,00.0,33.4,26.2,17.4,0000.0,0005.87,0013.41,0004.71
2021-11-21 08:05:00,,0833.1,5.00,0.00,24.4,23.5,00.0,33.4,26.2,17.3,0000.0,0005.94,0013.64,0004.73
2021-11-21 08:06:00,,0833.1,4.99,0.00,24.4,23.5,00.0,33.4,26.2,17.3,0000.0,0005.94,0013.65,0004.76
2021-11-21 08:07:00,,0833.2,5.00,0.00,24.4,23.5,00.0,33.4,26.1,17.3,0000.0,0005.93,0013.76,0004.79
2021-11-21 08:08:00,,0833.2,5.01,0.00,24.4,23.5,00.0,33.4,26.1,17.3,0000.0,0005.99,0014.12,0004.82
2021-11-21 08:09:00,,0833.1,4.99,0.00,24.3,23.5,00.0,33.4,26.1,17.3,0000.0,0006.03,0014.18,0004.84
2021-11-21 08:10:00,,0833.1,5.00,0.00,24.3,23.4,00.0,33.4,26.1,17.3,0000.0,0006.03,0014.58,0004.87
2021-11-21 08:11:00,,0833.2,5.01,0.00,24.3,23.4,00.0,33.4,26.1,17.3,0000.0,0006.03,0014.38,0004.91
2021-11-21 08:12:00,,0833.2,4.99,0.00,24.3,23.4,00.0,33.4,26.1,17.1,0000.0,0006.10,0014.73,0004.93
2021-11-21 08:13:00,,0833.2,5.00,0.00,24.3,23.4,00.0,33.4,26.1,17.1,0000.0,0006.15,0015.17,0004.95
2021-11-21 08:14:00,,0833.2,5.01,0.00,24.3,23.4,00.0,33.3,26.0,17.1,0000.8,0006.19,0015.08,0004.98
2021-11-21 08:15:00,,0833.2,5.00,0.00,24.3,23.4,00.0,33.3,26.0,17.1,0001.1,0006.17,0015.07,0005.00
2021-11-21 08:16:00,,0833.3,5.00,0.00,24.3,23.4,00.0,33.3,26.0,17.1,0000.0,0006.10,0014.92,0004.98
2021-11-21 08:17:00,,0833.3,5.00,0.00,24.3,23.4,00.0,33.3,26.0,17.0,0000.0,0006.09,0014.05,0004.97
2021-11-21 08:18:00,,0833.5,4.99,0.00,24.2,23.3,00.0,33.3,26.0,17.0,0001.0,0006.04,0013.51,0004.95
2021-11-21 08:19:00,,0833.4,5.00,0.00,24.2,23.3,00.0,33.3,26.0,17.0,0001.9,0005.94,0012.46,0004.94
2021-11-21 08:20:00,,0833.4,5.01,0.00,24.2,23.3,00.0,33.3,26.0,17.1,0000.0,0005.85,0011.82,0004.92
2021-11-21 08:21:00,,0833.4,5.00,0.00,24.2,23.3,00.0,33.3,26.0,17.2,0000.0,0005.82,0011.28,0004.90
2021-11-21 08:22:00,,0833.4,5.00,0.00,24.2,23.3,00.0,33.3,26.0,17.1,0000.0,0005.78,0010.95,0004.88
2021-11-21 08:23:00,,0833.5,5.00,0.00,24.2,23.3,00.0,33.3,25.9,17.1,0000.0,0005.72,0010.31,0004.88
2021-11-21 08:24:00,,0833.4,5.00,0.00,24.2,23.3,00.0,33.3,25.9,17.0,0000.0,0005.64,0009.79,0004.86
2021-11-21 08:25:00,,0833.5,5.00,0.00,24.2,23.3,00.0,33.2,25.9,17.0,0000.0,0005.59,0009.73,0004.83
2021-11-21 08:26:00,,0833.5,5.00,0.00,24.1,23.3,00.0,33.2,25.9,17.1,0000.0,0005.57,0010.13,0004.81
2021-11-21 08:27:00,,0833.5,5.00,0.00,24.1,23.3,00.0,33.2,25.9,17.1,0000.0,0005.56,0010.62,0004.81
2021-11-21 08:28:00,,0833.5,5.00,0.00,24.1,23.2,00.0,33.2,25.9,17.2,0000.0,0005.58,0011.83,0004.81
2021-11-21 08:29:00,,0833.5,4.98,0.00,24.1,23.2,00.0,33.2,25.9,17.2,0000.0,0005.64,0012.00,0004.82
2021-11-21 08:30:00,,0833.5,5.00,0.00,24.1,23.2,00.0,33.2,25.8,17.0,0000.0,0005.68,0012.11,0004.81
2021-11-21 08:31:00,,0833.5,5.00,0.00,24.1,23.2,00.0,33.2,25.7,17.0,0000.0,0005.64,0012.28,0004.80
2021-11-21 08:32:00,,0833.5,5.00,0.00,24.1,23.2,00.0,33.2,25.7,17.1,0000.0,0005.65,0012.49,0004.81
2021-11-21 08:33:00,,0833.5,5.00,0.00,24.1,23.1,00.0,33.2,25.8,17.2,0000.0,0005.71,0013.60,0004.81
2021-11-21 08:34:00,,0833.5,5.01,0.00,24.1,23.1,00.0,33.2,25.7,17.2,0000.0,0005.72,0013.83,0004.82
2021-11-21 08:35:00,,0833.5,4.99,0.00,24.0,23.1,00.0,33.1,25.7,17.3,0000.0,0005.74,0014.23,0004.83
2021-11-21 08:36:00,,0833.5,5.01,0.00,24.0,23.1,00.0,33.1,25.6,17.3,0000.0,0005.73,0014.78,0004.81
2021-11-21 08:37:00,,0833.5,5.00,0.00,24.0,23.1,00.0,33.1,25.7,17.3,0000.0,0005.72,0014.64,0004.81
2021-11-21 08:38:00,,0833.5,5.00,0.00,24.0,23.1,00.0,33.1,25.7,17.3,0000.0,0005.68,0013.98,0004.80
2021-11-21 08:39:00,,0833.5,4.99,0.00,24.0,23.1,00.0,33.1,25.7,17.3,0000.0,0005.59,0012.60,0004.76
2021-11-21 08:40:00,,0833.4,5.00,0.00,24.0,23.1,00.0,33.1,25.7,17.3,0000.0,0005.54,0012.40,0004.72
2021-11-21 08:41:00,,0833.4,5.02,0.00,24.0,23.1,00.0,33.1,25.7,17.2,0000.0,0005.53,0012.39,0004.71
2021-11-21 08:42:00,,0833.4,4.99,0.00,24.0,23.1,00.0,33.1,25.7,17.2,0000.0,0005.56,0012.11,0004.70
2021-11-21 08:43:00,,0833.4,5.00,0.00,24.0,23.1,00.0,33.1,25.7,17.2,0000.0,0005.56,0011.93,0004.67
2021-11-21 08:44:00,,0833.5,5.00,0.00,24.0,23.1,00.0,33.1,25.7,17.1,0000.0,0005.48,0010.79,0004.64
2021-11-21 08:45:00,,0833.5,4.99,0.00,24.0,23.0,00.0,33.1,25.6,17.1,0000.0,0005.44,0010.51,0004.61
2021-11-21 08:46:00,,0833.5,5.01,0.00,23.9,23.0,00.0,33.1,25.6,17.1,0000.0,0005.40,0010.43,0004.59
2021-11-21 08:47:00,,0833.5,5.01,0.00,23.9,23.0,00.0,33.0,25.6,17.1,0000.0,0005.38,0010.07,0004.58
2021-11-21 08:48:00,,0833.5,4.99,0.00,23.9,23.0,00.0,33.0,25.6,17.0,0000.0,0005.35,0009.99,0004.56
2021-11-21 08:49:00,,0833.6,5.01,0.00,23.9,22.9,00.0,33.0,25.6,16.9,0000.0,0005.33,0010.81,0004.54
2021-11-21 08:50:00,,0833.6,4.99,0.00,23.9,22.9,00.0,33.0,25.5,16.8,0000.0,0005.29,0010.96,0004.53
2021-11-21 08:51:00,,0833.6,5.01,0.00,23.9,22.9,00.0,33.0,25.5,16.8,0000.0,0005.27,0010.94,0004.51
2021-11-21 08:52:00,,0833.6,4.99,0.00,23.9,22.9,00.0,33.0,25.5,16.7,0000.0,0005.24,0010.94,0004.48
2021-11-21 08:53:00,,0833.6,5.00,0.00,23.9,22.8,00.0,33.0,25.5,16.6,0000.0,0005.18,0010.91,0004.44
2021-11-21 08:54:00,,0833.6,5.01,0.00,23.9,22.8,00.0,33.0,25.5,16.5,0000.0,0005.14,0010.94,0004.41
2021-11-21 08:55:00,,0833.5,5.01,0.00,23.8,22.8,00.0,33.0,25.5,16.4,0000.0,0005.09,0011.12,0004.35
2021-11-21 08:56:00,,0833.5,5.00,0.00,23.8,22.8,00.0,32.9,25.5,16.4,0000.0,0005.08,0012.41,0004.31
2021-11-21 08:57:00,,0833.5,4.99,0.00,23.8,22.8,00.0,32.9,25.5,16.4,0000.0,0005.07,0012.97,0004.28
2021-11-21 08:58:00,,0833.4,5.01,0.00,23.8,22.7,00.0,32.9,25.5,16.5,0000.0,0005.03,0012.79,0004.24
2021-11-21 08:59:00,,0833.4,5.00,0.00,23.8,22.7,00.0,32.9,25.5,16.5,0000.0,0004.99,0012.50,0004.21
